Tracking 29892 objects as of 21-Nov-2024
HD Live streaming from Space Station
objects crossing your sky now

FENGYUN 1C DEB

Track FENGYUN 1C DEB now!
10-day predictions


NORAD ID: 30267
Int'l Code: 1999-025YC
Perigee: 788.4 km
Apogee: 876.4 km
Inclination: 98.9 °
Period: 101.4 minutes
Semi major axis: 7203 km
RCS: 0.023 m2 (small)
Launch date: May 10, 1999
Source: People's Republic of China (PRC)
Launch site: Taiyaun Space Center, China (TSC)

Note: This is SATELLITE DEBRIS
Your satellite tracking list
Your tracking list is empty




NASA's NSSDC Master Catalog

Two Line Element Set (TLE):
1 30267U 99025YC  24325.99908296  .00004966  00000-0  23101-2 0  9995
2 30267  98.8741  29.3904 0061047 276.0706  83.3516 14.20025606918088
Source of the keplerian elements: AFSPC